Location: G�nzburg
(48.4565°N, 10.3217°E)
Time: 03:15:43
(UTC+02:00)

ISS - Visible Passes

Search period start: 25 May 2017 00:00
Search period end: 04 June 2017 00:00
Orbit: 402 x 409 km, 51.6° (Epoch: 25 May)

Date Brightness Start Highest point End Pass type
(mag) Time Alt. Az. Time Alt. Az. Time Alt. Az.
25 May -2.7 01:06:09 10° WNW 01:09:21 46° N 01:12:33 10° ENE visible
25 May -3.5 02:42:51 10° WNW 02:46:07 68° NNE 02:49:24 10° ESE visible
25 May -3.0 04:19:32 10° W 04:22:28 30° SW 04:25:22 10° SSE visible
25 May -3.8 22:37:25 10° SW 22:40:40 57° SSE 22:43:54 10° ENE visible
26 May -2.9 00:14:00 10° W 00:17:13 51° N 00:20:28 10° ENE visible
26 May -3.1 01:50:47 10° WNW 01:54:02 54° N 01:57:16 10° E visible
26 May -3.7 03:27:22 10° WNW 03:30:33 48° SSW 03:33:43 10° SE visible
26 May -3.2 21:45:39 10° SW 21:48:43 36° SSE 21:51:46 10° ENE visible
26 May -3.3 23:21:51 10° W 23:25:07 62° NNW 23:28:24 10° ENE visible
27 May -2.8 00:58:42 10° WNW 01:01:55 47° N 01:05:07 10° E visible
27 May -4.0 02:35:16 10° WNW 02:38:33 75° SSW 02:41:50 10° ESE visible
27 May -2.2 04:12:34 10° W 04:14:37 15° SW 04:16:38 10° S visible
27 May -3.8 22:29:43 10° WSW 22:33:02 83° NNW 22:36:20 10° ENE visible
28 May -2.7 00:06:34 10° WNW 00:09:45 45° N 00:12:57 10° ENE visible
28 May -3.8 01:43:11 10° WNW 01:46:30 77° NNE 01:47:25 44° E visible
28 May -2.8 23:14:22 10° W 23:17:35 48° N 23:20:49 10° ENE visible
29 May -3.3 00:51:07 10° WNW 00:54:24 58° NNE 00:56:00 26° E visible
29 May -1.7 02:27:42 10° WNW 02:28:36 16° W 02:28:36 16° W visible
29 May -3.1 22:22:10 10° W 22:25:26 57° NNW 22:28:41 10° ENE visible
29 May -2.9 23:59:00 10° WNW 00:02:13 49° N 00:05:06 12° E visible
30 May -2.8 01:35:33 10° WNW 01:37:42 36° W 01:37:42 36° W visible
30 May -2.7 23:06:50 10° WNW 23:10:02 46° N 23:13:14 10° ENE visible
31 May -3.9 00:43:26 10° WNW 00:46:45 86° NNE 00:47:00 74° E visible
31 May -2.7 22:14:37 10° W 22:17:50 47° N 22:21:03 10° ENE visible
31 May -3.5 23:51:20 10° WNW 23:54:37 64° NNE 23:56:24 24° E visible
01 Jun -1.7 01:27:58 10° W 01:29:01 17° W 01:29:01 17° W visible
01 Jun -3.0 22:59:11 10° WNW 23:02:26 52° N 23:05:40 10° E visible
02 Jun -3.4 00:35:44 10° WNW 00:38:28 47° WSW 00:38:28 47° WSW visible
02 Jun -2.8 22:07:00 10° WNW 22:10:12 46° N 22:13:25 10° E visible
02 Jun -3.9 23:43:34 10° WNW 23:46:53 83° SSW 23:47:56 40° ESE visible
03 Jun -3.6 22:51:26 10° WNW 22:54:43 71° NNE 22:57:28 14° ESE visible
